Location: Newark
(13.8117°N, 3.6025°W)
Time: 18:08:14
(UTC+00:00)

Transit 2A - All Passes

Search period start: 24 August 2019 00:00
Search period end: 03 September 2019 00:00
Orbit: 597 x 962 km, 66.7° (Epoch: 23 August)

Date Brightness Start Highest point End Pass type
(mag) Time Alt. Az. Time Alt. Az. Time Alt. Az.
24 Aug - 06:51:59 10° SE 06:55:15 14° ESE 06:58:27 10° ENE daylight
24 Aug - 08:31:57 10° SW 08:38:08 54° WNW 08:44:07 10° N daylight
24 Aug - 19:17:37 10° NNW 19:22:00 85° WSW 19:26:17 10° SSE visible
25 Aug - 07:57:41 10° SSW 08:04:03 84° WNW 08:10:12 10° NNE daylight
25 Aug - 18:43:40 10° N 18:47:55 50° ENE 18:52:05 10° SE visible
26 Aug - 07:23:43 10° S 07:29:59 63° ESE 07:36:02 10° NNE daylight
26 Aug - 09:10:36 10° W 09:13:15 13° WNW 09:15:51 10° NW daylight
26 Aug - 18:10:03 10° N 18:13:48 28° ENE 18:17:29 10° SE daylight
26 Aug - 19:55:02 10° W 19:56:34 12° WSW 19:58:05 10° SW visible
27 Aug - 06:50:03 10° S 06:55:56 40° ESE 07:01:37 10° NE daylight
27 Aug - 08:34:31 10° WSW 08:39:02 21° WNW 08:43:27 10° NNW daylight
27 Aug - 17:36:58 10° NNE 17:39:39 16° ENE 17:42:17 10° ESE daylight
27 Aug - 19:19:16 10° WNW 19:22:33 21° WSW 19:25:50 10° SSW visible
28 Aug - 06:16:47 10° SSE 06:21:53 26° ESE 06:26:51 10° NE daylight
28 Aug - 07:59:21 10° SW 08:04:54 32° WNW 08:10:14 10° N daylight
28 Aug - 18:44:30 10° NW 18:48:33 38° WSW 18:52:33 10° S visible
29 Aug - 05:44:09 10° SE 05:47:51 16° ESE 05:51:28 10° ENE visible
29 Aug - 07:24:40 10° SW 07:30:46 49° WNW 07:36:37 10° N daylight
29 Aug - 18:10:10 10° NNW 18:14:30 74° WSW 18:18:48 10° SSE daylight
30 Aug - 06:50:20 10° SSW 06:56:41 77° WNW 07:02:45 10° NNE daylight
30 Aug - 17:36:09 10° N 17:40:27 58° ENE 17:44:41 10° SSE daylight
31 Aug - 06:16:18 10° SSW 06:22:36 70° ESE 06:28:39 10° NNE daylight
31 Aug - 08:04:06 10° W 08:05:53 11° WNW 08:07:40 10° NW daylight
31 Aug - 17:02:28 10° N 17:06:21 31° ENE 17:10:10 10° SE daylight
31 Aug - 18:48:49 10° WSW 18:49:04 10° WSW 18:49:19 10° WSW visible
01 Sep - 05:42:34 10° S 05:48:33 44° ESE 05:54:17 10° NE visible
01 Sep - 07:27:30 10° WSW 07:31:41 18° WNW 07:35:45 10° NNW daylight
01 Sep - 16:29:14 10° NNE 16:32:12 18° ENE 16:35:07 10° ESE daylight
01 Sep - 18:12:02 10° WNW 18:15:04 19° WSW 18:18:07 10° SSW daylight
02 Sep - 05:09:12 10° SSE 05:14:30 28° ESE 05:19:37 10° NE visible
02 Sep - 06:52:12 10° SW 06:57:31 29° WNW 07:02:39 10° N daylight
02 Sep - 17:37:09 10° NW 17:41:04 34° WSW 17:44:58 10° S daylight
